CES5406 ZUUU-ZSSS

Flight info

Callsign CES5406
Flight time 2h 2m
Altitude 41100
Route UBRAB9W UBRAB B213 WHA R343 SASAN SAS62A
Aircraft A359/H-SDE2E3GHIJ3J4J5LM1ORWXY/LB1D1

Departure

Time 2026-05-05 09:28
Airport Chengdu Shuangliu International Airport (ZUUU)

Arrival

Time 2026-05-05 11:31
Airport Shanghai Hongqiao International Airport (ZSSS)
Time Latitude Longitude Altitude Speed Heading
2026-05-05 09:04 30.57396 103.95035 1653 ft 0 kts 157°
2026-05-05 09:20 30.57418 103.94898 1653 ft 0 kts 202°
2026-05-05 09:23 30.57415 103.94897 1653 ft 6 kts 202°
2026-05-05 09:23 30.57321 103.94853 1653 ft 17 kts 202°
2026-05-05 09:24 30.57209 103.94799 1653 ft 19 kts 203°
2026-05-05 09:24 30.57084 103.94741 1653 ft 20 kts 202°
2026-05-05 09:24 30.56951 103.94687 1653 ft 21 kts 192°
2026-05-05 09:24 30.56815 103.94644 1653 ft 18 kts 201°
2026-05-05 09:25 30.56704 103.94592 1653 ft 18 kts 202°
2026-05-05 09:25 30.56585 103.94534 1654 ft 20 kts 202°
2026-05-05 09:25 30.56453 103.94472 1653 ft 21 kts 202°
2026-05-05 09:25 30.56313 103.94406 1654 ft 23 kts 202°
2026-05-05 09:26 30.56225 103.94361 1653 ft 0 kts 210°
2026-05-05 09:26 30.56207 103.94337 1653 ft 0 kts 240°
2026-05-05 09:26 30.56216 103.94297 1653 ft 6 kts 307°
2026-05-05 09:26 30.56274 103.94218 1654 ft 18 kts 304°
2026-05-05 09:27 30.56290 103.94183 1654 ft 6 kts 295°
2026-05-05 09:27 30.56335 103.94066 1654 ft 17 kts 300°
2026-05-05 09:27 30.56422 103.94042 1663 ft 12 kts 17°
2026-05-05 09:27 30.56459 103.94058 1667 ft 24 kts 20°
2026-05-05 09:28 30.56848 103.94236 1665 ft 95 kts 21°
2026-05-05 09:28 30.57658 103.94611 1652 ft 154 kts 20°
2026-05-05 09:28 30.58752 103.95121 2049 ft 173 kts 19°
2026-05-05 09:28 30.59887 103.95617 2669 ft 178 kts 24°
2026-05-05 09:29 30.61029 103.96159 3373 ft 179 kts 25°
2026-05-05 09:29 30.62244 103.96735 3883 ft 194 kts 25°
2026-05-05 09:29 30.63492 103.97322 4667 ft 192 kts 24°
2026-05-05 09:29 30.64760 103.97917 5187 ft 207 kts 24°
2026-05-05 09:30 30.66182 103.98589 5499 ft 234 kts 24°
2026-05-05 09:30 30.67579 103.99605 5902 ft 251 kts 47°
2026-05-05 09:30 30.68682 104.01285 6277 ft 271 kts 59°
2026-05-05 09:30 30.69702 104.03183 6918 ft 281 kts 60°
2026-05-05 09:31 30.70745 104.05136 7692 ft 287 kts 59°
2026-05-05 09:31 30.71819 104.07123 8537 ft 294 kts 59°
2026-05-05 09:31 30.72922 104.09149 9409 ft 299 kts 59°
2026-05-05 09:31 30.74050 104.11207 10200 ft 306 kts 58°
2026-05-05 09:32 30.75407 104.13211 10608 ft 329 kts 43°
2026-05-05 09:32 30.77408 104.14660 10924 ft 351 kts 24°
2026-05-05 09:32 30.79727 104.15789 11236 ft 371 kts 21°
2026-05-05 09:32 30.82133 104.16910 11704 ft 383 kts 21°
2026-05-05 09:33 30.84622 104.18084 12336 ft 389 kts 22°
2026-05-05 09:33 30.87141 104.19284 12974 ft 394 kts 22°
2026-05-05 09:33 30.89685 104.20526 13598 ft 399 kts 24°
2026-05-05 09:33 30.91618 104.21733 14026 ft 402 kts 33°
2026-05-05 09:34 30.93774 104.23803 14727 ft 401 kts 46°
2026-05-05 09:34 30.95440 104.26400 15333 ft 403 kts 61°
2026-05-05 09:34 30.96515 104.29376 15872 ft 406 kts 75°
2026-05-05 09:35 30.97013 104.32624 16440 ft 409 kts 84°
2026-05-05 09:35 30.97547 104.39285 17559 ft 417 kts 85°
2026-05-05 09:35 30.97814 104.42667 18095 ft 421 kts 85°
2026-05-05 09:36 30.98089 104.46074 18592 ft 424 kts 85°
2026-05-05 09:36 30.98369 104.49512 19066 ft 428 kts 84°
2026-05-05 09:36 30.98653 104.52983 19559 ft 432 kts 84°
2026-05-05 09:36 30.98939 104.56488 20043 ft 436 kts 84°
2026-05-05 09:37 30.99228 104.60018 20558 ft 440 kts 84°
2026-05-05 09:37 30.99515 104.63535 21061 ft 444 kts 84°
2026-05-05 09:37 30.99808 104.67129 21582 ft 448 kts 84°
2026-05-05 09:37 31.00103 104.70759 22085 ft 452 kts 84°
2026-05-05 09:38 31.00399 104.74422 22583 ft 456 kts 84°
2026-05-05 09:38 31.00697 104.78115 23089 ft 460 kts 84°
2026-05-05 09:38 31.00996 104.81843 23546 ft 464 kts 84°
2026-05-05 09:38 31.01296 104.85591 24005 ft 466 kts 84°
2026-05-05 09:39 31.01597 104.89369 24489 ft 469 kts 84°
2026-05-05 09:39 31.01811 104.93176 24994 ft 472 kts 89°
2026-05-05 09:39 31.01551 104.97000 25544 ft 475 kts 99°
2026-05-05 09:39 31.00688 105.00665 26036 ft 478 kts 111°
2026-05-05 09:40 30.99366 105.04239 26528 ft 482 kts 115°
2026-05-05 09:40 30.97943 105.07798 27010 ft 486 kts 115°
2026-05-05 09:40 30.96506 105.11378 27506 ft 489 kts 115°
2026-05-05 09:40 30.95066 105.14982 27993 ft 493 kts 115°
2026-05-05 09:41 30.93614 105.18622 28455 ft 497 kts 114°
2026-05-05 09:41 30.92156 105.22285 28919 ft 500 kts 114°
2026-05-05 09:41 30.90708 105.25924 29391 ft 504 kts 114°
2026-05-05 09:41 30.89227 105.29637 29826 ft 507 kts 114°
2026-05-05 09:42 30.87737 105.33375 30174 ft 512 kts 114°
2026-05-05 09:42 30.86391 105.37218 30462 ft 515 kts 107°
2026-05-05 09:42 30.85578 105.41278 30791 ft 516 kts 96°
2026-05-05 09:42 30.85421 105.45444 31096 ft 516 kts 84°
2026-05-05 09:43 30.85905 105.49573 31427 ft 516 kts 76°
2026-05-05 09:43 30.86678 105.53649 31737 ft 518 kts 73°
2026-05-05 09:43 30.87546 105.57733 32048 ft 521 kts 72°
2026-05-05 09:43 30.88454 105.61828 32351 ft 524 kts 72°
2026-05-05 09:44 30.89368 105.65939 32651 ft 526 kts 72°
2026-05-05 09:44 30.90263 105.70014 33034 ft 527 kts 72°
2026-05-05 09:44 30.91156 105.74147 33471 ft 527 kts 72°
2026-05-05 09:44 30.92040 105.78291 33881 ft 526 kts 72°
2026-05-05 09:45 30.92914 105.82426 34214 ft 526 kts 72°
2026-05-05 09:45 30.93786 105.86569 34541 ft 527 kts 72°
2026-05-05 09:45 30.94655 105.90711 34870 ft 527 kts 72°
2026-05-05 09:45 30.95494 105.94874 35197 ft 529 kts 75°
2026-05-05 09:46 30.95955 105.99078 35521 ft 534 kts 83°
2026-05-05 09:46 30.95857 106.03423 35851 ft 539 kts 93°
2026-05-05 09:46 30.95177 106.07725 36188 ft 542 kts 100°
2026-05-05 09:46 30.94269 106.12001 36430 ft 544 kts 102°
2026-05-05 09:47 30.93271 106.16256 36707 ft 546 kts 103°
2026-05-05 09:47 30.92236 106.20509 36973 ft 546 kts 103°
2026-05-05 09:47 30.91189 106.24766 37227 ft 547 kts 103°
2026-05-05 09:47 30.90145 106.29025 37521 ft 547 kts 103°
2026-05-05 09:48 30.89118 106.33226 37778 ft 547 kts 103°
2026-05-05 09:48 30.87804 106.37396 38049 ft 551 kts 112°
2026-05-05 09:48 30.85957 106.41313 38309 ft 554 kts 122°
2026-05-05 09:48 30.83558 106.44823 38505 ft 555 kts 134°
2026-05-05 09:49 30.80851 106.48030 38698 ft 556 kts 136°
2026-05-05 09:49 30.78054 106.51134 38904 ft 556 kts 137°
2026-05-05 09:49 30.75218 106.54187 39124 ft 556 kts 139°
2026-05-05 09:49 30.72366 106.57226 39305 ft 556 kts 139°
2026-05-05 09:50 30.70476 106.59240 39408 ft 556 kts 139°
2026-05-05 09:50 30.66708 106.63273 39649 ft 557 kts 139°
2026-05-05 09:50 30.63859 106.66326 39836 ft 557 kts 139°
2026-05-05 09:50 30.61013 106.69382 40027 ft 557 kts 139°
2026-05-05 09:51 30.58175 106.72443 40196 ft 557 kts 139°
2026-05-05 09:51 30.55334 106.75510 40347 ft 558 kts 139°
2026-05-05 09:51 30.52489 106.78578 40508 ft 558 kts 139°
2026-05-05 09:51 30.49648 106.81642 40669 ft 559 kts 139°
2026-05-05 09:52 30.46800 106.84710 40809 ft 559 kts 139°
2026-05-05 09:52 30.44907 106.86748 40834 ft 560 kts 139°
2026-05-05 09:52 30.38289 106.93865 40846 ft 559 kts 139°
2026-05-05 09:53 30.32577 106.99973 40852 ft 559 kts 140°
2026-05-05 09:53 30.27754 107.04942 40851 ft 558 kts 141°
2026-05-05 09:54 30.20931 107.11882 40847 ft 559 kts 141°
2026-05-05 09:54 30.15139 107.17796 40846 ft 559 kts 141°
2026-05-05 09:55 30.09401 107.23874 40847 ft 560 kts 137°
2026-05-05 09:55 30.03854 107.30205 40845 ft 561 kts 137°
2026-05-05 09:56 29.99630 107.35864 40846 ft 562 kts 123°
2026-05-05 09:56 29.97739 107.39802 40846 ft 560 kts 111°
2026-05-05 09:56 29.95954 107.45425 40840 ft 558 kts 106°
2026-05-05 09:57 29.94049 107.52536 40846 ft 559 kts 104°
2026-05-05 09:57 29.91540 107.62541 40851 ft 558 kts 100°
2026-05-05 09:58 29.90802 107.69840 40859 ft 547 kts 83°
2026-05-05 09:58 29.91216 107.74156 40865 ft 537 kts 71°
2026-05-05 09:58 29.92079 107.78321 40878 ft 533 kts 68°
2026-05-05 09:59 29.94123 107.86512 40874 ft 531 kts 66°
2026-05-05 09:59 29.96257 107.94668 40882 ft 531 kts 66°
2026-05-05 10:00 29.98702 108.04173 40909 ft 533 kts 66°
2026-05-05 10:00 30.00422 108.11004 40900 ft 533 kts 67°
2026-05-05 10:01 30.02475 108.19210 40911 ft 532 kts 67°
2026-05-05 10:01 30.04523 108.27419 40912 ft 533 kts 67°
2026-05-05 10:02 30.06558 108.35600 40910 ft 534 kts 67°
2026-05-05 10:02 30.08604 108.43826 40928 ft 533 kts 67°
2026-05-05 10:03 30.10647 108.52036 40919 ft 532 kts 67°
2026-05-05 10:03 30.12722 108.60224 40927 ft 529 kts 65°
2026-05-05 10:04 30.15082 108.68257 40929 ft 527 kts 63°
2026-05-05 10:04 30.17482 108.76194 40933 ft 527 kts 63°
2026-05-05 10:05 30.19797 108.84004 40922 ft 526 kts 64°
2026-05-05 10:05 30.22128 108.92019 40930 ft 526 kts 64°
2026-05-05 10:06 30.24292 109.00132 40929 ft 530 kts 67°
2026-05-05 10:06 30.26229 109.08304 40938 ft 531 kts 68°
2026-05-05 10:07 30.28183 109.16525 40940 ft 529 kts 67°
2026-05-05 10:07 30.30164 109.24706 40935 ft 528 kts 67°
2026-05-05 10:08 30.32160 109.32877 40926 ft 528 kts 67°
2026-05-05 10:08 30.34143 109.41053 40924 ft 526 kts 67°
2026-05-05 10:09 30.36115 109.49158 40939 ft 526 kts 67°
2026-05-05 10:09 30.38090 109.57317 40926 ft 526 kts 67°
2026-05-05 10:10 30.39639 109.65653 40928 ft 532 kts 72°
2026-05-05 10:10 30.40917 109.74084 40936 ft 532 kts 73°
2026-05-05 10:11 30.42138 109.82480 40939 ft 532 kts 73°
2026-05-05 10:11 30.43358 109.90932 40934 ft 532 kts 73°
2026-05-05 10:12 30.44582 109.99390 40935 ft 533 kts 73°
2026-05-05 10:12 30.45809 110.07856 40947 ft 532 kts 73°
2026-05-05 10:13 30.47023 110.16262 40961 ft 532 kts 74°
2026-05-05 10:13 30.48239 110.24726 40926 ft 533 kts 75°
2026-05-05 10:14 30.49450 110.33200 40935 ft 533 kts 74°
2026-05-05 10:14 30.50653 110.41673 40935 ft 532 kts 74°
2026-05-05 10:15 30.51842 110.50085 40934 ft 532 kts 74°
2026-05-05 10:15 30.53031 110.58556 40927 ft 532 kts 74°
2026-05-05 10:16 30.54216 110.67034 40922 ft 533 kts 74°
2026-05-05 10:16 30.55398 110.75517 40913 ft 533 kts 75°
2026-05-05 10:17 30.56568 110.83998 40911 ft 533 kts 74°
2026-05-05 10:17 30.57736 110.92437 40893 ft 533 kts 74°
2026-05-05 10:18 30.58906 111.00935 40887 ft 533 kts 75°
2026-05-05 10:18 30.60080 111.09449 40874 ft 534 kts 75°
2026-05-05 10:19 30.61226 111.17954 40885 ft 532 kts 75°
2026-05-05 10:19 30.62362 111.26379 40880 ft 532 kts 75°
2026-05-05 10:20 30.63505 111.34866 40875 ft 532 kts 75°
2026-05-05 10:20 30.64642 111.43349 40879 ft 532 kts 75°
2026-05-05 10:21 30.65440 111.51928 40878 ft 536 kts 79°
2026-05-05 10:21 30.65924 111.60582 40878 ft 537 kts 81°
2026-05-05 10:22 30.66351 111.69187 40878 ft 537 kts 81°
2026-05-05 10:22 30.66783 111.77850 40878 ft 537 kts 81°
2026-05-05 10:23 30.67215 111.86513 40880 ft 537 kts 81°
2026-05-05 10:23 30.67644 111.95164 40888 ft 536 kts 81°
2026-05-05 10:24 30.68139 112.03744 40897 ft 535 kts 79°
2026-05-05 10:24 30.68761 112.12345 40891 ft 534 kts 79°
2026-05-05 10:25 30.69378 112.20929 40892 ft 533 kts 79°
2026-05-05 10:25 30.69965 112.29511 40896 ft 533 kts 79°
2026-05-05 10:26 30.70532 112.38039 40901 ft 533 kts 80°
2026-05-05 10:26 30.71095 112.46623 40913 ft 533 kts 80°
2026-05-05 10:27 30.71653 112.55208 40901 ft 532 kts 80°
2026-05-05 10:27 30.72206 112.63785 40907 ft 532 kts 80°
2026-05-05 10:28 30.72750 112.72310 40912 ft 532 kts 80°
2026-05-05 10:28 30.73292 112.80888 40917 ft 532 kts 81°
2026-05-05 10:29 30.73828 112.89469 40915 ft 532 kts 81°
2026-05-05 10:29 30.74357 112.98043 40919 ft 532 kts 81°
2026-05-05 10:30 30.74882 113.06625 40920 ft 532 kts 81°
2026-05-05 10:30 30.75396 113.15138 40921 ft 531 kts 81°
2026-05-05 10:31 30.75706 113.23717 40923 ft 532 kts 84°
2026-05-05 10:31 30.75864 113.32313 40923 ft 532 kts 84°
2026-05-05 10:32 30.76036 113.40907 40924 ft 532 kts 84°
2026-05-05 10:32 30.76234 113.49439 40929 ft 531 kts 84°
2026-05-05 10:33 30.76440 113.58018 40926 ft 531 kts 84°
2026-05-05 10:33 30.76642 113.66589 40926 ft 531 kts 84°
2026-05-05 10:34 30.76836 113.75170 40933 ft 531 kts 84°
2026-05-05 10:34 30.77024 113.83739 40929 ft 530 kts 84°
2026-05-05 10:35 30.77205 113.92250 40930 ft 530 kts 85°
2026-05-05 10:35 30.77381 114.00820 40931 ft 530 kts 85°
2026-05-05 10:36 30.77647 114.09375 40935 ft 529 kts 83°
2026-05-05 10:36 30.78136 114.17899 40925 ft 526 kts 77°
2026-05-05 10:37 30.80034 114.25946 40932 ft 516 kts 65°
2026-05-05 10:37 30.82548 114.33757 40929 ft 515 kts 64°
2026-05-05 10:38 30.85098 114.41550 40952 ft 516 kts 64°
2026-05-05 10:38 30.87630 114.49365 40945 ft 517 kts 64°
2026-05-05 10:39 30.90156 114.57138 40942 ft 517 kts 64°
2026-05-05 10:39 30.92698 114.64959 40954 ft 517 kts 64°
2026-05-05 10:40 30.95232 114.72789 40958 ft 516 kts 64°
2026-05-05 10:40 30.97757 114.80617 40958 ft 515 kts 64°
2026-05-05 10:41 31.00256 114.88386 40961 ft 515 kts 64°
2026-05-05 10:41 31.02768 114.96206 40959 ft 515 kts 64°
2026-05-05 10:42 31.06525 115.07945 40962 ft 515 kts 65°
2026-05-05 10:43 31.09016 115.15764 40970 ft 514 kts 65°
2026-05-05 10:43 31.11487 115.23535 40969 ft 513 kts 65°
2026-05-05 10:44 31.13957 115.31346 40976 ft 513 kts 65°
2026-05-05 10:44 31.16476 115.39130 40979 ft 513 kts 64°
2026-05-05 10:45 31.19009 115.46919 40981 ft 513 kts 64°
2026-05-05 10:45 31.21518 115.54674 40993 ft 514 kts 64°
2026-05-05 10:46 31.24033 115.62486 40992 ft 514 kts 65°
2026-05-05 10:46 31.26543 115.70306 40997 ft 515 kts 65°
2026-05-05 10:47 31.29059 115.78154 41004 ft 516 kts 65°
2026-05-05 10:47 31.31550 115.85959 41003 ft 516 kts 65°
2026-05-05 10:48 31.34065 115.93818 41005 ft 516 kts 64°
2026-05-05 10:48 31.36637 116.01671 41001 ft 518 kts 64°
2026-05-05 10:49 31.39212 116.09538 40998 ft 518 kts 65°
2026-05-05 10:49 31.41760 116.17379 40996 ft 518 kts 65°
2026-05-05 10:50 31.44309 116.25258 40992 ft 517 kts 65°
2026-05-05 10:50 31.46854 116.33140 40984 ft 518 kts 65°
2026-05-05 10:51 31.49401 116.41047 40990 ft 519 kts 65°
2026-05-05 10:51 31.51943 116.48961 40990 ft 519 kts 65°
2026-05-05 10:52 31.54465 116.56832 40983 ft 519 kts 65°
2026-05-05 10:52 31.57001 116.64760 40980 ft 519 kts 65°
2026-05-05 10:53 31.59532 116.72701 40980 ft 520 kts 65°
2026-05-05 10:53 31.62057 116.80638 40982 ft 519 kts 65°
2026-05-05 10:54 31.64563 116.88531 40993 ft 520 kts 66°
2026-05-05 10:54 31.67084 116.96493 40986 ft 521 kts 66°
2026-05-05 10:55 31.69602 117.04485 41000 ft 522 kts 66°
2026-05-05 10:55 31.72075 117.12483 40996 ft 521 kts 66°
2026-05-05 10:56 31.74516 117.20426 40996 ft 521 kts 66°
2026-05-05 10:56 31.76702 117.28572 41000 ft 527 kts 76°
2026-05-05 10:57 31.77050 117.37193 41004 ft 532 kts 91°
2026-05-05 10:57 31.76534 117.45874 41007 ft 533 kts 93°
2026-05-05 10:58 31.75874 117.54555 41008 ft 534 kts 94°
2026-05-05 10:58 31.75228 117.63204 41013 ft 535 kts 93°
2026-05-05 10:59 31.74602 117.71905 41011 ft 535 kts 93°
2026-05-05 10:59 31.73982 117.80609 41011 ft 535 kts 93°
2026-05-05 11:00 31.73357 117.89305 41015 ft 535 kts 93°
2026-05-05 11:00 31.72729 117.97950 41028 ft 535 kts 93°
2026-05-05 11:01 31.72090 118.06639 41019 ft 533 kts 93°
2026-05-05 11:01 31.71459 118.15324 41014 ft 534 kts 93°
2026-05-05 11:02 31.70858 118.24017 41013 ft 534 kts 93°
2026-05-05 11:02 31.70259 118.32661 41011 ft 534 kts 93°
2026-05-05 11:03 31.69646 118.41360 41011 ft 535 kts 94°
2026-05-05 11:03 31.69023 118.50069 41011 ft 536 kts 94°
2026-05-05 11:04 31.68393 118.58786 41012 ft 536 kts 94°
2026-05-05 11:04 31.67757 118.67503 41008 ft 536 kts 94°
2026-05-05 11:05 31.67118 118.76168 41011 ft 537 kts 94°
2026-05-05 11:05 31.66795 118.80528 40869 ft 536 kts 94°
2026-05-05 11:05 31.66470 118.84887 40630 ft 536 kts 94°
2026-05-05 11:05 31.66144 118.89243 40402 ft 537 kts 94°
2026-05-05 11:06 31.65816 118.93610 40167 ft 537 kts 94°
2026-05-05 11:06 31.65488 118.97969 39927 ft 536 kts 94°
2026-05-05 11:06 31.65162 119.02313 39469 ft 533 kts 94°
2026-05-05 11:06 31.64846 119.06645 38851 ft 534 kts 94°
2026-05-05 11:07 31.64595 119.10938 38108 ft 535 kts 92°
2026-05-05 11:07 31.64382 119.15293 37383 ft 533 kts 92°
2026-05-05 11:07 31.64199 119.19629 36685 ft 532 kts 91°
2026-05-05 11:07 31.64028 119.23956 35976 ft 530 kts 91°
2026-05-05 11:08 31.63855 119.28280 35243 ft 529 kts 92°
2026-05-05 11:08 31.63674 119.32590 34453 ft 530 kts 92°
2026-05-05 11:08 31.63484 119.36901 33753 ft 527 kts 92°
2026-05-05 11:08 31.63292 119.41171 32952 ft 523 kts 91°
2026-05-05 11:09 31.63093 119.45433 32043 ft 522 kts 91°
2026-05-05 11:09 31.62892 119.49623 31159 ft 521 kts 91°
2026-05-05 11:09 31.62687 119.53852 30274 ft 519 kts 91°
2026-05-05 11:09 31.62480 119.58084 29193 ft 520 kts 91°
2026-05-05 11:10 31.62275 119.62307 28288 ft 517 kts 91°
2026-05-05 11:10 31.62070 119.66496 27595 ft 510 kts 91°
2026-05-05 11:10 31.61872 119.70622 26930 ft 504 kts 91°
2026-05-05 11:10 31.61686 119.74703 26265 ft 498 kts 91°
2026-05-05 11:11 31.61503 119.78740 25601 ft 493 kts 91°
2026-05-05 11:11 31.61323 119.82683 24955 ft 488 kts 92°
2026-05-05 11:11 31.61140 119.86636 24316 ft 484 kts 92°
2026-05-05 11:11 31.60958 119.90547 23800 ft 476 kts 92°
2026-05-05 11:12 31.60776 119.94405 23203 ft 471 kts 92°
2026-05-05 11:12 31.60595 119.98216 22519 ft 466 kts 92°
2026-05-05 11:12 31.60415 120.01988 21853 ft 461 kts 92°
2026-05-05 11:12 31.60235 120.05730 21201 ft 457 kts 92°
2026-05-05 11:13 31.60056 120.09440 20542 ft 454 kts 92°
2026-05-05 11:13 31.59880 120.13073 19889 ft 451 kts 92°
2026-05-05 11:13 31.59701 120.16732 19220 ft 448 kts 92°
2026-05-05 11:13 31.59522 120.20366 18552 ft 445 kts 92°
2026-05-05 11:14 31.59344 120.23978 17828 ft 442 kts 92°
2026-05-05 11:14 31.59166 120.27553 17126 ft 437 kts 92°
2026-05-05 11:14 31.58932 120.31083 16521 ft 432 kts 97°
2026-05-05 11:14 31.58211 120.34472 15971 ft 427 kts 108°
2026-05-05 11:15 31.57253 120.37747 15553 ft 427 kts 109°
2026-05-05 11:15 31.56280 120.40978 15128 ft 425 kts 109°
2026-05-05 11:15 31.55292 120.44263 14688 ft 422 kts 109°
2026-05-05 11:15 31.54322 120.47494 14256 ft 419 kts 109°
2026-05-05 11:16 31.53361 120.50703 13830 ft 416 kts 109°
2026-05-05 11:16 31.52424 120.53832 13519 ft 405 kts 109°
2026-05-05 11:16 31.51510 120.56886 13270 ft 389 kts 109°
2026-05-05 11:16 31.50631 120.59822 13032 ft 375 kts 109°
2026-05-05 11:17 31.49798 120.62603 12704 ft 349 kts 109°
2026-05-05 11:17 31.49020 120.65195 12288 ft 328 kts 109°
2026-05-05 11:17 31.48275 120.67680 11643 ft 319 kts 110°
2026-05-05 11:17 31.47561 120.70061 11380 ft 307 kts 110°
2026-05-05 11:18 31.46851 120.72420 11131 ft 307 kts 110°
2026-05-05 11:18 31.46156 120.74733 10780 ft 301 kts 110°
2026-05-05 11:18 31.45451 120.77072 10520 ft 304 kts 110°
2026-05-05 11:18 31.44759 120.79370 10185 ft 298 kts 110°
2026-05-05 11:19 31.44065 120.81671 9834 ft 297 kts 110°
2026-05-05 11:19 31.43383 120.83936 9366 ft 296 kts 111°
2026-05-05 11:19 31.42697 120.86208 9022 ft 295 kts 111°
2026-05-05 11:19 31.42016 120.88459 8704 ft 293 kts 111°
2026-05-05 11:20 31.41340 120.90699 8411 ft 291 kts 111°
2026-05-05 11:20 31.40671 120.92929 8113 ft 289 kts 110°
2026-05-05 11:20 31.40326 120.95207 7824 ft 290 kts 90°
2026-05-05 11:20 31.40721 120.97502 7602 ft 291 kts 73°
2026-05-05 11:21 31.41391 120.99752 7348 ft 291 kts 72°
2026-05-05 11:21 31.42076 121.01969 7078 ft 288 kts 72°
2026-05-05 11:21 31.42748 121.04166 6833 ft 286 kts 71°
2026-05-05 11:21 31.43407 121.06341 6632 ft 278 kts 72°
2026-05-05 11:22 31.44036 121.08430 6509 ft 266 kts 72°
2026-05-05 11:22 31.44635 121.10436 6366 ft 254 kts 73°
2026-05-05 11:22 31.44982 121.12382 6129 ft 244 kts 88°
2026-05-05 11:22 31.45030 121.14346 5872 ft 239 kts 93°
2026-05-05 11:23 31.45025 121.16274 5632 ft 235 kts 93°
2026-05-05 11:23 31.45016 121.18177 5386 ft 233 kts 92°
2026-05-05 11:23 31.45010 121.20075 5144 ft 232 kts 93°
2026-05-05 11:23 31.45006 121.21966 4906 ft 232 kts 93°
2026-05-05 11:24 31.45002 121.23851 4657 ft 231 kts 92°
2026-05-05 11:24 31.45003 121.25706 4502 ft 223 kts 93°
2026-05-05 11:24 31.45005 121.27475 4387 ft 212 kts 93°
2026-05-05 11:24 31.45004 121.29138 4228 ft 204 kts 95°
2026-05-05 11:25 31.44743 121.30720 3969 ft 194 kts 122°
2026-05-05 11:25 31.43805 121.31749 3809 ft 184 kts 152°
2026-05-05 11:25 31.42625 121.32288 3675 ft 182 kts 169°
2026-05-05 11:25 31.41366 121.32453 3553 ft 184 kts 177°
2026-05-05 11:26 31.40088 121.32523 3385 ft 184 kts 178°
2026-05-05 11:26 31.38821 121.32589 3233 ft 181 kts 178°
2026-05-05 11:26 31.37570 121.32657 3113 ft 180 kts 178°
2026-05-05 11:26 31.36337 121.32728 2907 ft 179 kts 178°
2026-05-05 11:27 31.35094 121.32798 2682 ft 179 kts 177°
2026-05-05 11:27 31.33858 121.32864 2434 ft 177 kts 177°
2026-05-05 11:27 31.32642 121.32931 2213 ft 169 kts 177°
2026-05-05 11:27 31.31522 121.32991 2000 ft 155 kts 177°
2026-05-05 11:28 31.30497 121.33045 1801 ft 140 kts 176°
2026-05-05 11:28 31.29558 121.33097 1610 ft 130 kts 176°
2026-05-05 11:28 31.28689 121.33139 1411 ft 121 kts 175°
2026-05-05 11:28 31.27860 121.33155 1262 ft 120 kts 178°
2026-05-05 11:29 31.27027 121.33224 1110 ft 120 kts 174°
2026-05-05 11:29 31.26209 121.33278 998 ft 119 kts 182°
2026-05-05 11:29 31.25383 121.33305 953 ft 120 kts 183°
2026-05-05 11:29 31.24542 121.33350 781 ft 121 kts 182°
2026-05-05 11:30 31.23706 121.33415 577 ft 121 kts 180°
2026-05-05 11:30 31.22846 121.33453 403 ft 126 kts 178°
2026-05-05 11:30 31.21951 121.33495 202 ft 128 kts 179°
2026-05-05 11:30 31.21052 121.33559 39 ft 129 kts 181°
2026-05-05 11:31 31.20265 121.33604 26 ft 94 kts 177°
2026-05-05 11:31 31.19751 121.33631 28 ft 52 kts 178°
2026-05-05 11:31 31.19532 121.33639 27 ft 10 kts 180°
2026-05-05 11:31 31.19420 121.33624 26 ft 20 kts 194°
2026-05-05 11:32 31.19311 121.33578 28 ft 0 kts 205°
2026-05-05 11:32 31.19233 121.33535 27 ft 18 kts 203°
2026-05-05 11:32 31.19160 121.33494 28 ft 15 kts 208°
2026-05-05 11:32 31.19126 121.33444 31 ft 0 kts 253°
2026-05-05 11:33 31.19118 121.33392 29 ft 13 kts 264°
2026-05-05 11:34 31.19113 121.33270 27 ft 17 kts 269°
2026-05-05 11:34 31.19107 121.33123 29 ft 16 kts 267°
2026-05-05 11:34 31.19124 121.33030 30 ft 9 kts 317°
2026-05-05 11:34 31.19227 121.33005 28 ft 21 kts 354°
2026-05-05 11:35 31.19378 121.32996 29 ft 24 kts 358°
2026-05-05 11:35 31.19545 121.32985 28 ft 10 kts 347°
2026-05-05 11:35 31.19573 121.32942 26 ft 11 kts 291°
2026-05-05 11:35 31.19577 121.32847 25 ft 13 kts 268°
2026-05-05 11:36 31.19572 121.32730 25 ft 14 kts 272°
2026-05-05 11:36 31.19588 121.32672 28 ft 9 kts 290°
2026-05-05 11:36 31.19596 121.32603 29 ft 0 kts 270°
2026-05-05 11:36 31.19596 121.32582 30 ft 0 kts 268°
2026-05-05 11:37 31.19595 121.32562 30 ft 0 kts 268°
2026-05-05 11:38 31.19594 121.32545 29 ft 1 kts 268°